Change the Weather History Date:

Sunday, March 31, 2013

  Actual Average (KLBF) Record (KLBF)
Temperature  
Mean Temperature 50 °F 43 °F  
Max Temperature 67 °F 57 °F 88 °F (1946)
Min Temperature 32 °F 28 °F 3 °F (1899)
Degree Days  
Heating Degree Days 16 22  
Month to date heating degree days 836  
Since 1 July heating degree days 5865  
Cooling Degree Days 0 0  
Month to date cooling degree days 0  
Year to date cooling degree days 0  
Moisture  
Dew Point 29 °F    
Average Humidity 60    
Maximum Humidity 92    
Minimum Humidity 18    
Precipitation  
Precipitation 0.01 in 0.05 in 0.75 in (1884)
Month to date precipitation 1.05  
Year to date precipitation 1.89  
Snow  
Snow 0.00 in 0.10 in 2.00 in (1890)
Month to date snowfall 4.4  
Since 1 July snowfall 25.3  
Snow Depth -    
Sea Level Pressure  
Sea Level Pressure 30.02 in    
Wind  
Wind Speed 11 mph (WNW)    
Max Wind Speed 23 mph    
Max Gust Speed 31 mph    
Visibility 10 miles    
Events      
T = Trace of Precipitation, MM = Missing Value Source: NWS Daily Summary

Daily Weather History Graph

Daily Weather History Graph

Search for Another Location

Airport or City:

Trip Planner

Search our weather history database for the weather conditions in past years. The results will help you decide how hot, cold, wet, or windy it might be!

Date:

Astronomy

Mar. 31, 2013 Rise Set
Actual Time 7:26 AM CDT 8:07 PM CDT
Civil Twilight 6:58 AM CDT 8:35 PM CDT
Nautical Twilight 6:24 AM CDT 9:08 PM CDT
Astronomical Twilight 5:50 AM CDT 9:43 PM CDT
Moon 12:18 AM CDT (3/31) 10:11 AM CDT (3/31)
Length of Visible Light 13h 37m
Length of Day
12h 40m
Waning Gibbous, 77% of the Moon is Illuminated
Mar 31
Waning Gibbous
Apr 2
Last Quarter
Apr 10
New
Apr 18
First Quarter
Apr 25
Full

Hourly Weather History & Observations

Time (CDT) Temp. Windchill Dew Point Humidity Pressure Visibility Wind Dir Wind Speed Gust Speed Precip Events Conditions
12:15 AM 40.5 °F 33.6 °F 36.5 °F 86% 30.08 in 10.0 mi West 11.5 mph - N/A   Clear
12:35 AM 40.1 °F 33.6 °F 35.6 °F 84% 30.08 in 10.0 mi West 10.4 mph - N/A   Clear
12:55 AM 38.8 °F 32.1 °F 34.7 °F 85% 30.08 in 10.0 mi West 10.4 mph - N/A   Clear
1:15 AM 38.8 °F 32.6 °F 34.5 °F 84% 30.09 in 10.0 mi WNW 9.2 mph - N/A   Clear
1:35 AM 38.7 °F 32.4 °F 34.0 °F 83% 30.09 in 10.0 mi WNW 9.2 mph - N/A   Clear
1:55 AM 37.4 °F 30.8 °F 33.3 °F 85% 30.09 in 10.0 mi WNW 9.2 mph - N/A   Clear
2:15 AM 37.6 °F 31.0 °F 33.6 °F 86% 30.10 in 10.0 mi WNW 9.2 mph - N/A   Clear
2:35 AM 39.2 °F 32.5 °F 34.0 °F 82% 30.10 in 10.0 mi NW 10.4 mph - N/A   Clear
2:55 AM 39.6 °F 32.5 °F 34.0 °F 80% 30.10 in 10.0 mi NW 11.5 mph - N/A   Clear
3:15 AM 39.2 °F 33.0 °F 33.8 °F 81% 30.09 in 10.0 mi NW 9.2 mph - N/A   Clear
3:35 AM 38.3 °F 31.4 °F 33.8 °F 84% 30.09 in 10.0 mi NW 10.4 mph - N/A   Clear
3:55 AM 37.9 °F 31.5 °F 33.3 °F 83% 30.08 in 10.0 mi NW 9.2 mph - N/A   Clear
4:15 AM 37.4 °F 30.8 °F 32.9 °F 84% 30.08 in 10.0 mi NW 9.2 mph - N/A   Clear
4:35 AM 36.1 °F 31.4 °F 32.2 °F 86% 30.08 in 10.0 mi WNW 5.8 mph - N/A   Clear
4:55 AM 34.9 °F 32.0 °F 32.0 °F 89% 30.07 in 10.0 mi West 3.5 mph - N/A   Clear
5:15 AM 34.5 °F 28.6 °F 32.0 °F 90% 30.07 in 10.0 mi West 6.9 mph - N/A   Clear
5:35 AM 34.3 °F 29.2 °F 32.0 °F 91% 30.07 in 10.0 mi West 5.8 mph - N/A   Clear
5:55 AM 34.2 °F 29.0 °F 31.8 °F 91% 30.08 in 10.0 mi West 5.8 mph - N/A   Clear
6:15 AM 34.0 °F 27.2 °F 31.8 °F 92% 30.07 in 10.0 mi WNW 8.1 mph - N/A   Clear
6:35 AM 33.4 °F 27.3 °F 31.1 °F 91% 30.07 in 10.0 mi WNW 6.9 mph - N/A   Clear
6:55 AM 33.3 °F 27.1 °F 31.1 °F 92% 30.05 in 10.0 mi West 6.9 mph - N/A   Clear
7:15 AM 33.4 °F 28.1 °F 31.1 °F 91% 30.05 in 10.0 mi West 5.8 mph - N/A   Clear
7:35 AM 32.4 °F 26.0 °F 30.2 °F 92% 30.05 in 10.0 mi West 6.9 mph - N/A   Clear
7:55 AM 32.5 °F - 30.4 °F 92% 30.05 in 10.0 mi Calm Calm - N/A   Clear
8:15 AM 34.2 °F 31.2 °F 31.1 °F 89% 30.05 in 10.0 mi WSW 3.5 mph - N/A   Clear
8:35 AM 35.4 °F 32.6 °F 31.5 °F 85% 30.05 in 10.0 mi West 3.5 mph - N/A   Clear
8:55 AM 37.4 °F 32.1 °F 32.0 °F 81% 30.04 in 10.0 mi West 6.9 mph - N/A   Clear
9:15 AM 39.4 °F 34.5 °F 32.9 °F 78% 30.04 in 10.0 mi West 6.9 mph - N/A   Clear
9:55 AM 44.2 °F 41.0 °F 32.4 °F 63% 30.04 in 10.0 mi WSW 5.8 mph - N/A   Clear
10:15 AM 46.0 °F 43.9 °F 32.7 °F 60% 30.03 in 10.0 mi West 4.6 mph - N/A   Clear
10:35 AM 48.0 °F - 29.8 °F 49% 30.02 in 10.0 mi West 6.9 mph - N/A   Clear
10:55 AM 50.0 °F - 29.5 °F 45% 30.01 in 10.0 mi WSW 4.6 mph - N/A   Clear
11:15 AM 52.5 °F - 26.2 °F 36% 30.00 in 10.0 mi West 9.2 mph - N/A   Clear
11:35 AM 54.5 °F - 28.4 °F 37% 30.00 in 10.0 mi West 10.4 mph - N/A   Clear
11:55 AM 55.6 °F - 28.9 °F 36% 29.99 in 10.0 mi West 11.5 mph - N/A   Clear
12:15 PM 56.7 °F - 28.0 °F 33% 29.98 in 10.0 mi West 12.7 mph - N/A   Clear
12:35 PM 57.2 °F - 29.5 °F 35% 29.98 in 10.0 mi SW 13.8 mph 17.3 mph N/A   Clear
12:55 PM 58.6 °F - 30.7 °F 35% 29.97 in 10.0 mi WSW 13.8 mph 19.6 mph N/A   Clear
1:15 PM 59.7 °F - 31.6 °F 35% 29.96 in 10.0 mi West 12.7 mph 19.6 mph N/A   Clear
1:35 PM 61.2 °F - 30.4 °F 31% 29.95 in 10.0 mi WSW 16.1 mph 19.6 mph N/A   Clear
1:55 PM 62.2 °F - 30.6 °F 30% 29.94 in 10.0 mi SW 10.4 mph 21.9 mph N/A   Scattered Clouds
2:15 PM 61.5 °F - 30.6 °F 31% 29.93 in 10.0 mi West 13.8 mph 23.0 mph N/A   Mostly Cloudy
2:35 PM 63.3 °F - 29.7 °F 28% 29.91 in 10.0 mi West 16.1 mph 20.7 mph N/A   Overcast
2:55 PM 64.2 °F - 28.0 °F 26% 29.90 in 10.0 mi West 10.4 mph 23.0 mph N/A   Mostly Cloudy
3:15 PM 65.5 °F - 25.7 °F 22% 29.89 in 10.0 mi West 18.4 mph 25.3 mph N/A   Overcast
3:35 PM 64.2 °F - 25.2 °F 23% 29.88 in 10.0 mi WNW 15.0 mph 23.0 mph N/A   Overcast
3:55 PM 67.5 °F - 23.2 °F 19% 29.87 in 10.0 mi WNW 15.0 mph 25.3 mph N/A   Mostly Cloudy
4:15 PM 66.9 °F - 22.3 °F 18% 29.87 in 10.0 mi WNW 21.9 mph 27.6 mph N/A   Overcast
4:35 PM 65.5 °F - 24.6 °F 21% 29.87 in 10.0 mi NW 16.1 mph 25.3 mph N/A   Overcast
4:55 PM 64.0 °F - 25.3 °F 23% 29.87 in 10.0 mi NNW 15.0 mph 23.0 mph N/A   Mostly Cloudy
5:15 PM 63.1 °F - 26.6 °F 25% 29.87 in 10.0 mi North 19.6 mph 25.3 mph N/A   Overcast
5:35 PM 59.0 °F - 30.0 °F 33% 29.89 in 10.0 mi NE 17.3 mph 25.3 mph N/A   Mostly Cloudy
5:55 PM 57.9 °F - 29.7 °F 34% 29.90 in 10.0 mi NE 23.0 mph 28.8 mph N/A   Scattered Clouds
6:15 PM 54.9 °F - 28.8 °F 37% 29.93 in 10.0 mi NE 23.0 mph 31.1 mph N/A   Clear
6:35 PM 51.1 °F - 26.8 °F 39% 29.96 in 10.0 mi NE 21.9 mph 28.8 mph N/A   Scattered Clouds
6:55 PM 50.0 °F - 25.3 °F 38% 29.98 in 10.0 mi NE 18.4 mph 24.2 mph N/A   Mostly Cloudy
7:15 PM 47.3 °F - 22.3 °F 37% 29.99 in 10.0 mi NE 17.3 mph 29.9 mph N/A   Scattered Clouds
7:35 PM 46.4 °F 39.2 °F 20.5 °F 36% 30.01 in 10.0 mi NE 18.4 mph 24.2 mph N/A   Mostly Cloudy
8:15 PM 42.6 °F 34.6 °F 20.5 °F 41% 30.05 in 10.0 mi NE 17.3 mph 27.6 mph N/A   Overcast
8:35 PM 40.6 °F 32.3 °F 21.2 °F 46% 30.07 in 10.0 mi NE 16.1 mph - N/A   Overcast
9:15 PM 38.8 °F 30.0 °F 22.6 °F 52% 30.10 in 10.0 mi NNE 16.1 mph 20.7 mph N/A   Overcast
9:35 PM 37.6 °F 30.0 °F 24.4 °F 59% 30.11 in 10.0 mi NE 11.5 mph 19.6 mph N/A   Overcast
9:55 PM 36.5 °F 28.7 °F 24.6 °F 62% 30.12 in 10.0 mi NE 11.5 mph - N/A   Scattered Clouds
10:15 PM 35.6 °F 25.9 °F 26.2 °F 69% 30.13 in 10.0 mi NNE 16.1 mph 20.7 mph N/A   Clear
10:35 PM 34.2 °F 26.2 °F 26.6 °F 74% 30.14 in 10.0 mi NNE 10.4 mph 16.1 mph N/A   Clear
11:15 PM 32.0 °F 23.0 °F 26.2 °F 79% 30.16 in 10.0 mi NNE 11.5 mph - N/A   Clear
11:35 PM 32.0 °F 25.6 °F 27.0 °F 82% 30.17 in 10.0 mi NNE 6.9 mph - N/A   Mostly Cloudy
11:55 PM 32.2 °F 23.8 °F 27.0 °F 81% 30.17 in 10.0 mi NNE 10.4 mph - N/A   Overcast